Date String (YYYY-MM-DD hh:mm:ss) UTC,Instrument flags,Ambient pressure (hPa),Sample flow (lpm),Bypass flow (lpm),Sample temperature (°C),Ambient temperature (°C),ASC tube jacket temperature (°C),LED temperature (°C),Box temperature (°C),Sample RH (%),Span deviation,Mass concentration (μg/m³),Mass concentration (μg/m³),Mass concentration (μg/m³)
DateTimeUTC,F1_M11,P_M11,Q1_M11,Q2_M11,T1_M11,T2_M11,T3_M11,T4_M11,T5_M11,U1_M11,ZSPAN_M11,X2_M11,X0_M11,X1_M11
2022-02-22 05:00:00,,0820.7,5.01,0.00,22.1,20.7,00.0,31.3,23.5,05.3,0000.0,0004.19,0009.25,0003.34
2022-02-22 05:01:00,,0820.7,5.00,0.00,22.1,21.6,00.0,31.3,23.7,05.3,0000.0,0004.17,0009.17,0003.34
2022-02-22 05:02:00,,0820.7,4.99,0.00,22.2,22.4,00.0,31.3,24.0,05.3,0000.0,0004.18,0009.18,0003.34
2022-02-22 05:03:00,,0820.7,5.00,0.00,22.4,23.0,00.0,31.3,24.2,05.2,0000.0,0004.17,0009.31,0003.35
2022-02-22 05:04:00,,0820.7,4.99,0.00,22.4,22.8,00.0,31.3,24.3,05.2,0000.0,0004.16,0009.04,0003.35
2022-02-22 05:05:00,,0820.7,5.01,0.00,22.4,22.2,00.0,31.3,24.1,05.2,0000.0,0004.14,0008.95,0003.35
2022-02-22 05:06:00,,0820.7,5.02,0.00,22.3,21.7,00.0,31.3,23.9,05.2,0000.0,0004.10,0008.83,0003.33
2022-02-22 05:07:00,,0820.6,5.00,0.00,22.2,21.4,00.0,31.3,23.8,05.2,0000.0,0004.14,0008.99,0003.33
2022-02-22 05:08:00,,0820.6,5.00,0.00,22.2,21.0,00.0,31.2,23.7,05.3,0000.0,0004.13,0008.76,0003.33
2022-02-22 05:09:00,,0820.7,5.00,0.00,22.1,20.7,00.0,31.2,23.6,05.3,0000.0,0004.12,0008.57,0003.33
2022-02-22 05:10:00,,0820.7,5.00,0.00,22.0,20.7,00.0,31.2,23.5,05.3,0000.0,0004.13,0008.30,0003.33
2022-02-22 05:11:00,,0820.8,5.00,0.00,22.1,21.5,00.0,31.2,23.6,05.3,0000.0,0004.11,0008.42,0003.33
2022-02-22 05:12:00,,0820.8,4.99,0.00,22.2,22.4,00.0,31.2,23.9,05.2,0000.0,0004.06,0008.35,0003.32
2022-02-22 05:13:00,,0820.8,5.00,0.00,22.3,23.0,00.0,31.3,24.2,05.1,0000.0,0004.07,0008.43,0003.30
2022-02-22 05:14:00,,0820.7,4.99,0.00,22.4,22.9,00.0,31.3,24.2,05.1,0000.0,0004.07,0008.37,0003.28
2022-02-22 05:15:00,,0820.7,5.01,0.00,22.4,22.5,00.0,31.3,24.1,05.1,0000.0,0004.09,0008.43,0003.29
2022-02-22 05:16:00,,0820.7,5.00,0.00,22.3,22.1,00.0,31.3,24.0,05.1,0000.0,0004.09,0008.63,0003.30
2022-02-22 05:17:00,,0820.6,5.00,0.00,22.2,21.6,00.0,31.3,23.8,05.2,0000.0,0004.08,0008.59,0003.30
2022-02-22 05:18:00,,0820.6,4.99,0.00,22.1,21.2,00.0,31.2,23.7,05.2,0000.0,0004.05,0008.66,0003.29
2022-02-22 05:19:00,,0820.7,5.01,0.00,22.0,20.9,00.0,31.2,23.5,05.2,0000.0,0004.03,0008.54,0003.28
2022-02-22 05:20:00,,0820.7,5.00,0.00,22.1,21.6,00.0,31.2,23.7,05.2,0000.0,0004.04,0009.74,0003.27
2022-02-22 05:21:00,,0820.7,5.00,0.00,22.2,22.4,00.0,31.2,24.0,05.1,0000.0,0004.06,0009.88,0003.26
2022-02-22 05:22:00,,0820.7,5.00,0.00,22.4,23.1,00.0,31.3,24.2,05.1,0000.0,0004.05,0009.93,0003.25
2022-02-22 05:23:00,,0820.7,5.00,0.00,22.4,22.9,00.0,31.3,24.3,05.1,0000.0,0004.07,0010.33,0003.26
2022-02-22 05:24:00,,0820.8,5.01,0.00,22.4,22.4,00.0,31.3,24.2,05.1,0000.0,0004.04,0010.19,0003.28
2022-02-22 05:25:00,,0820.8,5.00,0.00,22.4,21.8,00.0,31.3,24.0,05.1,0000.0,0004.01,0010.34,0003.28
2022-02-22 05:26:00,,0820.8,4.99,0.00,22.3,21.4,00.0,31.2,23.9,05.1,0000.0,0003.98,0010.97,0003.27
2022-02-22 05:27:00,,0820.8,5.01,0.00,22.2,21.1,00.0,31.2,23.7,05.1,0000.0,0003.99,0011.28,0003.27
2022-02-22 05:28:00,,0820.7,5.01,0.00,22.1,21.0,00.0,31.2,23.6,05.1,-000.4,0004.03,0011.41,0003.27
2022-02-22 05:29:00,,0820.7,4.99,0.00,22.1,21.2,00.0,31.2,23.6,05.2,-000.3,0004.04,0011.26,0003.27
2022-02-22 05:30:00,,0820.7,5.00,0.00,22.2,22.0,00.0,31.2,23.8,05.1,-000.1,0004.06,0011.74,0003.27
2022-02-22 05:31:00,,0820.7,5.00,0.00,22.3,22.8,00.0,31.3,24.1,05.1,-000.2,0004.03,0010.89,0003.27
2022-02-22 05:32:00,,0820.7,4.99,0.00,22.4,22.7,00.0,31.3,24.2,05.1,-000.1,0003.99,0010.70,0003.28
2022-02-22 05:33:00,,0820.8,5.01,0.00,22.4,22.1,00.0,31.3,24.1,05.1,0000.0,0004.02,0010.46,0003.29
2022-02-22 05:34:00,,0820.8,5.00,0.00,22.3,21.7,00.0,31.2,24.0,05.1,0000.0,0004.01,0010.10,0003.28
2022-02-22 05:35:00,,0820.8,5.00,0.00,22.2,21.3,00.0,31.2,23.8,05.1,0000.0,0004.02,0010.10,0003.28
2022-02-22 05:36:00,,0820.8,5.00,0.00,22.1,20.9,00.0,31.2,23.7,05.1,0000.0,0004.02,0010.05,0003.29
2022-02-22 05:37:00,,0820.7,5.00,0.00,22.1,20.8,00.0,31.2,23.6,05.1,0000.0,0004.03,0009.29,0003.30
2022-02-22 05:38:00,,0820.7,5.00,0.00,22.1,21.5,00.0,31.2,23.7,05.1,0000.0,0004.06,0008.84,0003.32
2022-02-22 05:39:00,,0820.7,5.00,0.00,22.2,22.4,00.0,31.2,24.0,05.1,0000.0,0004.11,0009.35,0003.34
2022-02-22 05:40:00,,0820.6,4.99,0.00,22.4,22.9,00.0,31.3,24.2,05.0,0000.0,0004.13,0009.53,0003.35
2022-02-22 05:41:00,,0820.6,5.01,0.00,22.4,22.5,00.0,31.2,24.2,05.0,0000.0,0004.12,0009.28,0003.37
2022-02-22 05:42:00,,0820.6,4.98,0.00,22.3,22.1,00.0,31.2,24.1,05.0,0000.0,0004.13,0009.00,0003.37
2022-02-22 05:43:00,,0820.7,5.02,0.00,22.3,21.6,00.0,31.2,23.9,05.0,0000.0,0004.13,0008.96,0003.37
2022-02-22 05:44:00,,0820.7,5.00,0.00,22.2,21.2,00.0,31.2,23.8,05.0,0000.0,0004.13,0009.44,0003.38
2022-02-22 05:45:00,,0820.7,4.98,0.00,22.1,20.9,00.0,31.2,23.7,05.0,0000.0,0004.16,0010.09,0003.39
2022-02-22 05:46:00,,0820.7,5.01,0.00,22.1,20.8,00.0,31.1,23.6,05.1,0000.0,0004.16,0010.18,0003.39
2022-02-22 05:47:00,,0820.7,5.00,0.00,22.1,21.4,00.0,31.2,23.7,05.1,0000.0,0004.20,0010.15,0003.40
2022-02-22 05:48:00,,0820.7,4.99,0.00,22.2,22.3,00.0,31.2,24.0,05.0,0000.0,0004.18,0009.95,0003.40
2022-02-22 05:49:00,,0820.6,5.00,0.00,22.4,22.9,00.0,31.2,24.2,05.0,0000.0,0004.14,0009.78,0003.40
2022-02-22 05:50:00,,0820.6,5.01,0.00,22.4,22.7,00.0,31.3,24.3,05.0,0000.0,0004.09,0009.32,0003.40
2022-02-22 05:51:00,,0820.6,5.00,0.00,22.4,22.2,00.0,31.3,24.2,05.0,0000.0,0004.05,0008.99,0003.39
2022-02-22 05:52:00,,0820.7,5.00,0.00,22.3,21.8,00.0,31.2,24.0,05.0,0000.0,0004.05,0009.15,0003.38
2022-02-22 05:53:00,,0820.7,5.00,0.00,22.2,21.3,00.0,31.2,23.9,05.0,0000.0,0004.03,0009.20,0003.38
2022-02-22 05:54:00,,0820.7,4.99,0.00,22.2,21.0,00.0,31.2,23.7,05.1,0000.0,0004.05,0009.29,0003.39
2022-02-22 05:55:00,,0820.6,5.01,0.00,22.1,20.9,00.0,31.2,23.6,05.1,0000.0,0004.05,0009.42,0003.39
2022-02-22 05:56:00,,0820.6,5.00,0.00,22.1,21.4,00.0,31.2,23.6,05.1,0000.0,0004.00,0008.73,0003.38
2022-02-22 05:57:00,,0820.6,4.99,0.00,22.2,22.2,00.0,31.2,23.9,05.0,0000.0,0004.05,0008.80,0003.39
2022-02-22 05:58:00,,0820.6,5.00,0.00,22.3,23.0,00.0,31.3,24.2,05.0,0000.0,0004.03,0008.89,0003.39
2022-02-22 05:59:00,,0820.6,4.99,0.00,22.4,23.1,00.0,31.3,24.3,04.9,0000.0,0004.05,0008.96,0003.38
